Time,TemperatureF,DewpointF,PressureIn,WindDirection,WindDirectionDegrees,WindSpeedMPH,WindSpeedGustMPH,Humidity,HourlyPrecipIn,Conditions,Clouds,dailyrainin,SoftwareType,DateUTC
2013-01-02 00:02:00,18.0,5.0,30.37,West,279,4.0,8.0,56,0.00,,,0.00,,2013-01-02 07:02:00,
2013-01-02 00:12:00,18.0,5.0,30.37,West,279,4.0,8.0,56,0.00,,,0.00,,2013-01-02 07:12:00,
2013-01-02 00:22:00,19.0,5.0,30.37,SSE,165,3.0,7.0,53,0.00,,,0.00,,2013-01-02 07:22:00,
2013-01-02 00:32:00,21.0,5.0,30.37,WSW,250,6.0,9.0,49,0.00,,,0.00,,2013-01-02 07:32:00,
2013-01-02 00:42:00,21.0,5.0,30.37,WSW,250,6.0,9.0,49,0.00,,,0.00,,2013-01-02 07:42:00,
2013-01-02 00:52:00,22.0,6.0,30.36,SW,217,8.0,13.0,49,0.00,,,0.00,,2013-01-02 07:52:00,
2013-01-02 01:02:00,26.0,6.0,30.36,SW,234,9.0,16.0,41,0.00,,,0.00,,2013-01-02 08:02:00,
2013-01-02 01:11:00,26.0,6.0,30.36,SW,234,9.0,16.0,41,0.00,,,0.00,,2013-01-02 08:11:00,
2013-01-02 01:22:00,19.0,4.0,30.36,SW,232,2.0,7.0,51,0.00,,,0.00,,2013-01-02 08:22:00,
2013-01-02 01:32:00,18.0,4.0,30.36,South,170,3.0,5.0,54,0.00,,,0.00,,2013-01-02 08:32:00,
2013-01-02 01:42:00,18.0,4.0,30.36,South,170,3.0,5.0,54,0.00,,,0.00,,2013-01-02 08:42:00,
2013-01-02 01:52:00,18.0,4.0,30.35,WSW,251,8.0,10.0,54,0.00,,,0.00,,2013-01-02 08:52:00,
2013-01-02 02:02:00,21.0,5.0,30.35,WSW,244,8.0,11.0,49,0.00,,,0.00,,2013-01-02 09:02:00,
2013-01-02 02:12:00,21.0,5.0,30.35,WSW,244,8.0,11.0,49,0.00,,,0.00,,2013-01-02 09:12:00,
2013-01-02 02:22:00,20.0,5.0,30.35,WSW,243,5.0,9.0,51,0.00,,,0.00,,2013-01-02 09:22:00,
2013-01-02 02:32:00,21.0,4.0,30.35,West,264,9.0,12.0,47,0.00,,,0.00,,2013-01-02 09:32:00,
2013-01-02 02:43:00,21.0,4.0,30.35,West,264,9.0,12.0,47,0.00,,,0.00,,2013-01-02 09:43:00,
2013-01-02 02:52:00,18.0,3.0,30.36,East,89,2.0,7.0,51,0.00,,,0.00,,2013-01-02 09:52:00,
2013-01-02 03:02:00,17.0,4.0,30.36,West,265,6.0,10.0,55,0.00,,,0.00,,2013-01-02 10:02:00,
2013-01-02 03:12:00,17.0,4.0,30.36,West,265,6.0,10.0,55,0.00,,,0.00,,2013-01-02 10:12:00,
2013-01-02 03:22:00,18.0,4.0,30.36,SW,233,1.0,9.0,53,0.00,,,0.00,,2013-01-02 10:22:00,
2013-01-02 03:32:00,16.0,3.0,30.37,SW,218,3.0,7.0,55,0.00,,,0.00,,2013-01-02 10:32:00,
2013-01-02 03:42:00,16.0,3.0,30.37,SW,218,3.0,7.0,55,0.00,,,0.00,,2013-01-02 10:42:00,
2013-01-02 03:52:00,16.0,3.0,30.37,West,271,4.0,6.0,55,0.00,,,0.00,,2013-01-02 10:52:00,
2013-01-02 04:02:00,14.0,2.0,30.38,South,179,4.0,8.0,59,0.00,,,0.00,,2013-01-02 11:02:00,
2013-01-02 04:11:00,14.0,2.0,30.38,South,179,4.0,8.0,59,0.00,,,0.00,,2013-01-02 11:11:00,
2013-01-02 04:22:00,15.0,3.0,30.39,West,269,6.0,8.0,59,0.00,,,0.00,,2013-01-02 11:22:00,
2013-01-02 04:32:00,15.0,3.0,30.39,West,277,5.0,7.0,58,0.00,,,0.00,,2013-01-02 11:32:00,
2013-01-02 04:42:00,15.0,3.0,30.39,West,277,5.0,7.0,58,0.00,,,0.00,,2013-01-02 11:42:00,
2013-01-02 04:52:00,15.0,3.0,30.38,WNW,283,8.0,10.0,59,0.00,,,0.00,,2013-01-02 11:52:00,
2013-01-02 05:02:00,16.0,4.0,30.38,West,273,9.0,10.0,58,0.00,,,0.00,,2013-01-02 12:02:00,
2013-01-02 05:12:00,16.0,4.0,30.38,West,273,9.0,10.0,58,0.00,,,0.00,,2013-01-02 12:12:00,
2013-01-02 05:22:00,16.0,3.0,30.39,NNW,328,8.0,10.0,56,0.00,,,0.00,,2013-01-02 12:22:00,
2013-01-02 05:32:00,16.0,3.0,30.40,West,259,1.0,5.0,56,0.00,,,0.00,,2013-01-02 12:32:00,
2013-01-02 05:42:00,16.0,3.0,30.40,West,259,1.0,5.0,56,0.00,,,0.00,,2013-01-02 12:42:00,
2013-01-02 05:52:00,15.0,2.0,30.39,SW,232,3.0,5.0,56,0.00,,,0.00,,2013-01-02 12:52:00,
2013-01-02 06:02:00,16.0,3.0,30.39,West,281,8.0,10.0,56,0.00,,,0.00,,2013-01-02 13:02:00,
2013-01-02 06:12:00,16.0,3.0,30.39,West,281,8.0,10.0,56,0.00,,,0.00,,2013-01-02 13:12:00,
2013-01-02 06:22:00,16.0,2.0,30.39,West,267,5.0,12.0,54,0.00,,,0.00,,2013-01-02 13:22:00,
2013-01-02 06:32:00,16.0,2.0,30.39,East,96,3.0,8.0,52,0.00,,,0.00,,2013-01-02 13:32:00,
2013-01-02 06:42:00,16.0,2.0,30.39,East,96,3.0,8.0,52,0.00,,,0.00,,2013-01-02 13:42:00,
2013-01-02 06:52:00,14.0,1.0,30.38,WSW,242,4.0,6.0,55,0.00,,,0.00,,2013-01-02 13:52:00,
2013-01-02 07:02:00,13.0,1.0,30.37,WSW,255,2.0,5.0,57,0.00,,,0.00,,2013-01-02 14:02:00,
2013-01-02 07:12:00,13.0,1.0,30.37,WSW,255,2.0,5.0,57,0.00,,,0.00,,2013-01-02 14:12:00,
2013-01-02 07:22:00,14.0,0.0,30.37,SSW,211,1.0,4.0,54,0.00,,,0.00,,2013-01-02 14:22:00,
2013-01-02 07:32:00,14.0,1.0,30.36,SSW,192,2.0,6.0,55,0.00,,,0.00,,2013-01-02 14:32:00,
2013-01-02 07:42:00,14.0,1.0,30.36,SSW,192,2.0,6.0,55,0.00,,,0.00,,2013-01-02 14:42:00,
2013-01-02 07:53:00,16.0,1.0,30.36,SSW,203,2.0,5.0,51,0.00,,,0.00,,2013-01-02 14:53:00,
2013-01-02 08:02:00,15.0,0.0,30.35,NW,306,1.0,4.0,50,0.00,,,0.00,,2013-01-02 15:02:00,
2013-01-02 08:12:00,15.0,0.0,30.35,NW,306,1.0,4.0,50,0.00,,,0.00,,2013-01-02 15:12:00,
2013-01-02 08:22:00,19.0,1.0,30.35,South,184,4.0,8.0,44,0.00,,,0.00,,2013-01-02 15:22:00,
2013-01-02 08:33:00,19.0,0.0,30.34,South,173,2.0,9.0,43,0.00,,,0.00,,2013-01-02 15:33:00,
2013-01-02 08:42:00,19.0,0.0,30.34,South,173,2.0,9.0,43,0.00,,,0.00,,2013-01-02 15:42:00,
2013-01-02 08:52:00,20.0,0.0,30.35,NW,323,3.0,11.0,41,0.00,,,0.00,,2013-01-02 15:52:00,
2013-01-02 09:02:00,21.0,1.0,30.35,SSW,200,5.0,9.0,41,0.00,,,0.00,,2013-01-02 16:02:00,
2013-01-02 09:12:00,21.0,1.0,30.35,SSW,200,5.0,9.0,41,0.00,,,0.00,,2013-01-02 16:12:00,
2013-01-02 09:22:00,25.0,1.0,30.35,WSW,237,3.0,10.0,35,0.00,,,0.00,,2013-01-02 16:22:00,
2013-01-02 09:33:00,27.0,-1.0,30.36,SW,226,10.0,16.0,29,0.00,,,0.00,,2013-01-02 16:33:00,
2013-01-02 09:53:00,25.0,2.0,30.37,NE,55,3.0,5.0,36,0.00,,,0.00,,2013-01-02 16:53:00,
2013-01-02 10:03:00,23.0,3.0,30.37,SSE,167,3.0,5.0,41,0.00,,,0.00,,2013-01-02 17:03:00,
2013-01-02 10:12:00,23.0,3.0,30.37,SSE,167,3.0,5.0,41,0.00,,,0.00,,2013-01-02 17:12:00,
2013-01-02 10:22:00,23.0,5.0,30.37,East,81,1.0,3.0,45,0.00,,,0.00,,2013-01-02 17:22:00,
2013-01-02 10:33:00,23.0,4.0,30.38,SW,224,1.0,5.0,43,0.00,,,0.00,,2013-01-02 17:33:00,
2013-01-02 10:43:00,23.0,4.0,30.38,SW,224,1.0,5.0,43,0.00,,,0.00,,2013-01-02 17:43:00,
2013-01-02 10:53:00,23.0,4.0,30.38,SW,225,0.0,4.0,44,0.00,,,0.00,,2013-01-02 17:53:00,
2013-01-02 11:02:00,25.0,5.0,30.38,East,90,1.0,3.0,41,0.00,,,0.00,,2013-01-02 18:02:00,
2013-01-02 11:12:00,25.0,5.0,30.38,East,90,1.0,3.0,41,0.00,,,0.00,,2013-01-02 18:12:00,
2013-01-02 11:22:00,26.0,6.0,30.39,SSE,150,2.0,3.0,42,0.00,,,0.00,,2013-01-02 18:22:00,
2013-01-02 11:33:00,25.0,5.0,30.39,South,178,2.0,5.0,42,0.00,,,0.00,,2013-01-02 18:33:00,
2013-01-02 11:42:00,25.0,5.0,30.39,South,178,2.0,5.0,42,0.00,,,0.00,,2013-01-02 18:42:00,
2013-01-02 11:52:00,26.0,6.0,30.39,South,176,0.0,2.0,41,0.00,,,0.00,,2013-01-02 18:52:00,
2013-01-02 12:02:00,27.0,6.0,30.39,ENE,72,0.0,3.0,41,0.00,,,0.00,,2013-01-02 19:02:00,
2013-01-02 12:12:00,27.0,6.0,30.39,ENE,72,0.0,3.0,41,0.00,,,0.00,,2013-01-02 19:12:00,
2013-01-02 12:22:00,27.0,6.0,30.38,SSE,157,2.0,3.0,41,0.00,,,0.00,,2013-01-02 19:22:00,
2013-01-02 12:32:00,29.0,8.0,30.37,ESE,113,5.0,7.0,40,0.00,,,0.00,,2013-01-02 19:32:00,
2013-01-02 12:42:00,29.0,8.0,30.37,ESE,113,5.0,7.0,40,0.00,,,0.00,,2013-01-02 19:42:00,
2013-01-02 12:52:00,28.0,7.0,30.37,ESE,119,1.0,4.0,41,0.00,,,0.00,,2013-01-02 19:52:00,
2013-01-02 13:02:00,28.0,8.0,30.37,ENE,71,1.0,4.0,43,0.00,,,0.00,,2013-01-02 20:02:00,
2013-01-02 13:12:00,28.0,8.0,30.37,ENE,71,1.0,4.0,43,0.00,,,0.00,,2013-01-02 20:12:00,
2013-01-02 13:22:00,28.0,7.0,30.37,ENE,71,0.0,2.0,41,0.00,,,0.00,,2013-01-02 20:22:00,
2013-01-02 13:32:00,30.0,7.0,30.36,ENE,72,2.0,3.0,37,0.00,,,0.00,,2013-01-02 20:32:00,
2013-01-02 13:42:00,30.0,7.0,30.36,ENE,72,2.0,3.0,37,0.00,,,0.00,,2013-01-02 20:42:00,
2013-01-02 13:53:00,27.0,8.0,30.36,ENE,65,3.0,8.0,43,0.00,,,0.00,,2013-01-02 20:53:00,
2013-01-02 14:02:00,27.0,9.0,30.36,ENE,63,2.0,4.0,46,0.00,,,0.00,,2013-01-02 21:02:00,
2013-01-02 14:12:00,27.0,9.0,30.36,ENE,63,2.0,4.0,46,0.00,,,0.00,,2013-01-02 21:12:00,
2013-01-02 14:22:00,27.0,7.0,30.36,ESE,119,1.0,3.0,42,0.00,,,0.00,,2013-01-02 21:22:00,
2013-01-02 14:32:00,27.0,5.0,30.35,ESE,119,1.0,2.0,38,0.00,,,0.00,,2013-01-02 21:32:00,
2013-01-02 14:42:00,27.0,5.0,30.35,ESE,119,1.0,2.0,38,0.00,,,0.00,,2013-01-02 21:42:00,
2013-01-02 14:52:00,27.0,8.0,30.36,SSE,161,1.0,4.0,44,0.00,,,0.00,,2013-01-02 21:52:00,
2013-01-02 15:02:00,27.0,9.0,30.36,South,180,2.0,4.0,46,0.00,,,0.00,,2013-01-02 22:02:00,
2013-01-02 15:12:00,27.0,9.0,30.36,South,180,2.0,4.0,46,0.00,,,0.00,,2013-01-02 22:12:00,
2013-01-02 15:22:00,25.0,8.0,30.36,SW,223,2.0,5.0,47,0.00,,,0.00,,2013-01-02 22:22:00,
2013-01-02 15:32:00,26.0,8.0,30.36,SSW,205,0.0,4.0,46,0.00,,,0.00,,2013-01-02 22:32:00,
2013-01-02 15:42:00,26.0,8.0,30.36,SSW,205,0.0,4.0,46,0.00,,,0.00,,2013-01-02 22:42:00,
2013-01-02 15:52:00,25.0,7.0,30.37,SSW,205,2.0,5.0,46,0.00,,,0.00,,2013-01-02 22:52:00,
2013-01-02 16:02:00,24.0,6.0,30.37,West,267,2.0,3.0,45,0.00,,,0.00,,2013-01-02 23:02:00,
2013-01-02 16:12:00,24.0,6.0,30.37,West,267,2.0,3.0,45,0.00,,,0.00,,2013-01-02 23:12:00,
2013-01-02 16:22:00,20.0,5.0,30.37,WNW,284,0.0,4.0,52,0.00,,,0.00,,2013-01-02 23:22:00,
2013-01-02 16:32:00,19.0,4.0,30.37,WNW,298,4.0,6.0,51,0.00,,,0.00,,2013-01-02 23:32:00,
2013-01-02 16:52:00,18.0,4.0,30.38,West,281,9.0,13.0,54,0.00,,,0.00,,2013-01-02 23:52:00,
2013-01-02 17:02:00,21.0,4.0,30.38,SW,225,5.0,7.0,47,0.00,,,0.00,,2013-01-03 00:02:00,
2013-01-02 17:22:00,21.0,3.0,30.38,WSW,243,1.0,5.0,45,0.00,,,0.00,,2013-01-03 00:22:00,
2013-01-02 17:37:00,19.0,2.0,30.39,WNW,297,7.0,9.0,47,0.00,,,0.00,,2013-01-03 00:37:00,
2013-01-02 17:52:00,18.0,2.0,30.40,WNW,302,1.0,4.0,48,0.00,,,0.00,,2013-01-03 00:52:00,
2013-01-02 18:02:00,18.0,2.0,30.40,WNW,282,2.0,5.0,48,0.00,,,0.00,,2013-01-03 01:02:00,
2013-01-02 18:12:00,18.0,2.0,30.40,WNW,282,2.0,5.0,48,0.00,,,0.00,,2013-01-03 01:12:00,
2013-01-02 18:22:00,19.0,3.0,30.40,West,261,5.0,8.0,48,0.00,,,0.00,,2013-01-03 01:22:00,
2013-01-02 18:32:00,19.0,3.0,30.40,WSW,239,5.0,11.0,48,0.00,,,0.00,,2013-01-03 01:32:00,
2013-01-02 18:42:00,19.0,3.0,30.40,WSW,239,5.0,11.0,48,0.00,,,0.00,,2013-01-03 01:42:00,
2013-01-02 18:52:00,18.0,2.0,30.40,WSW,250,2.0,5.0,49,0.00,,,0.00,,2013-01-03 01:52:00,
2013-01-02 19:02:00,19.0,2.0,30.40,SW,234,1.0,8.0,47,0.00,,,0.00,,2013-01-03 02:02:00,
2013-01-02 19:12:00,19.0,2.0,30.40,SW,234,1.0,8.0,47,0.00,,,0.00,,2013-01-03 02:12:00,
2013-01-02 19:22:00,18.0,2.0,30.40,WSW,250,3.0,5.0,48,0.00,,,0.00,,2013-01-03 02:22:00,
2013-01-02 19:32:00,16.0,2.0,30.40,West,281,2.0,6.0,53,0.00,,,0.00,,2013-01-03 02:32:00,
2013-01-02 19:42:00,16.0,2.0,30.40,West,281,2.0,6.0,53,0.00,,,0.00,,2013-01-03 02:42:00,
2013-01-02 19:52:00,16.0,2.0,30.40,West,281,2.0,6.0,53,0.00,,,0.00,,2013-01-03 02:52:00,
2013-01-02 20:02:00,17.0,2.0,30.40,West,276,9.0,11.0,50,0.00,,,0.00,,2013-01-03 03:02:00,
2013-01-02 20:12:00,17.0,1.0,30.41,West,264,5.0,10.0,49,0.00,,,0.00,,2013-01-03 03:12:00,
2013-01-02 20:22:00,17.0,1.0,30.41,West,264,5.0,10.0,49,0.00,,,0.00,,2013-01-03 03:22:00,
2013-01-02 20:46:00,17.0,1.0,30.40,WSW,242,4.0,7.0,48,0.00,,,0.00,,2013-01-03 03:46:00,
2013-01-02 20:52:00,17.0,1.0,30.40,West,263,5.0,8.0,48,0.00,,,0.00,,2013-01-03 03:52:00,
2013-01-02 21:02:00,17.0,1.0,30.40,West,276,6.0,10.0,48,0.00,,,0.00,,2013-01-03 04:02:00,
2013-01-02 21:12:00,17.0,1.0,30.40,West,276,6.0,10.0,48,0.00,,,0.00,,2013-01-03 04:12:00,
2013-01-02 21:22:00,17.0,2.0,30.40,WSW,254,4.0,9.0,50,0.00,,,0.00,,2013-01-03 04:22:00,
2013-01-02 21:32:00,16.0,2.0,30.40,SW,231,2.0,5.0,53,0.00,,,0.00,,2013-01-03 04:32:00,
2013-01-02 21:42:00,16.0,2.0,30.40,SW,231,2.0,5.0,53,0.00,,,0.00,,2013-01-03 04:42:00,
2013-01-02 21:52:00,17.0,3.0,30.40,WSW,245,2.0,5.0,54,0.00,,,0.00,,2013-01-03 04:52:00,
2013-01-02 22:03:00,16.0,3.0,30.40,WSW,250,3.0,5.0,55,0.00,,,0.00,,2013-01-03 05:03:00,
2013-01-02 22:12:00,16.0,3.0,30.40,WSW,250,3.0,5.0,55,0.00,,,0.00,,2013-01-03 05:12:00,
2013-01-02 22:22:00,16.0,3.0,30.41,WSW,252,3.0,6.0,55,0.00,,,0.00,,2013-01-03 05:22:00,
2013-01-02 22:33:00,16.0,3.0,30.41,WSW,252,3.0,6.0,55,0.00,,,0.00,,2013-01-03 05:33:00,
2013-01-02 22:42:00,16.0,3.0,30.41,WSW,252,3.0,6.0,55,0.00,,,0.00,,2013-01-03 05:42:00,
2013-01-02 22:52:00,16.0,2.0,30.40,SW,225,2.0,4.0,52,0.00,,,0.00,,2013-01-03 05:52:00,
2013-01-02 23:02:00,16.0,2.0,30.40,WSW,246,3.0,6.0,52,0.00,,,0.00,,2013-01-03 06:02:00,
2013-01-02 23:12:00,16.0,2.0,30.40,WSW,246,3.0,6.0,52,0.00,,,0.00,,2013-01-03 06:12:00,
2013-01-02 23:22:00,14.0,1.0,30.39,SW,225,2.0,5.0,55,0.00,,,0.00,,2013-01-03 06:22:00,
2013-01-02 23:32:00,14.0,0.0,30.39,West,259,5.0,6.0,54,0.00,,,0.00,,2013-01-03 06:32:00,
2013-01-02 23:42:00,14.0,0.0,30.39,West,259,5.0,6.0,54,0.00,,,0.00,,2013-01-03 06:42:00,
2013-01-02 23:52:00,16.0,2.0,30.40,SW,234,3.0,6.0,53,0.00,,,0.00,,2013-01-03 06:52:00,